DC4AT Weather Reports


Display with metric or nautical units.
time (UTC)temp
F
wind
direction
speed
MPH
gust
MPH
rain 1hr
in
rain 24hr
in
rain mn
in
humidity
%
barometer
mb
20260503021341 52 86 1.0 6.0 0.00 0.00 0.00 76 1013.7
20260503020341 53 92 0.0 0.0 0.00 0.00 0.00 74 1013.8
20260503015341 54 92 0.0 0.0 0.00 0.00 0.00 73 1013.8
20260503014341 54 92 1.0 2.0 0.00 0.00 0.00 71 1013.9
20260503013341 55 92 1.0 3.0 0.00 0.00 0.00 71 1014.0
20260503012341 55 92 1.0 2.0 0.00 0.00 0.00 71 1014.2
20260503011341 54 92 1.0 3.0 0.00 0.00 0.00 72 1014.3
20260503010341 54 92 1.0 3.0 0.00 0.00 0.00 72 1014.4
20260503005341 54 92 1.0 3.0 0.00 0.00 0.00 71 1014.4
20260503004341 54 92 0.0 3.0 0.00 0.00 0.00 71 1014.4
20260503003341 54 92 1.0 3.0 0.00 0.00 0.00 72 1014.4
20260503002341 54 92 1.0 3.0 0.00 0.00 0.00 73 1014.6
20260503001341 53 92 3.0 6.0 0.00 0.00 0.00 77 1014.6
20260503000341 53 91 3.0 8.0 0.00 0.00 0.00 79 1015.0
20260502235341 53 276 3.0 9.0 0.00 0.00 0.00 78 1015.3
20260502234341 54 88 0.0 0.0 0.00 0.00 0.00 73 1014.6
20260502233341 55 88 0.0 0.0 0.00 0.00 0.00 71 1014.6
20260502232341 55 88 0.0 1.0 0.00 0.00 0.00 71 1014.7
20260502231341 55 88 1.0 3.0 0.00 0.00 0.00 70 1014.7
20260502230341 56 87 0.0 0.0 0.00 0.00 0.00 71 1014.7
20260502225341 57 90 0.0 0.0 0.00 0.00 0.00 67 1014.8
20260502224341 57 90 0.0 0.0 0.00 0.00 0.00 65 1014.8
20260502223341 58 90 0.0 3.0 0.00 0.00 0.00 64 1014.7
20260502222341 58 90 1.0 3.0 0.00 0.00 0.00 64 1014.8
20260502221342 59 77 0.0 0.0 0.00 0.00 0.00 63 1014.8
20260502220342 59 71 0.0 2.0 0.00 0.00 0.00 62 1014.8
20260502215342 59 67 0.0 2.0 0.00 0.00 0.00 63 1014.9
20260502214342 60 65 0.0 0.0 0.00 0.00 0.00 63 1015.0
20260502213342 61 65 0.0 0.0 0.00 0.00 0.00 61 1015.1
20260502212342 62 65 0.0 0.0 0.00 0.00 0.00 59 1015.1
20260502211342 62 65 1.0 3.0 0.00 0.00 0.00 57 1015.1
20260502210342 62 57 0.0 1.0 0.00 0.00 0.00 58 1015.1
20260502205342 62 56 1.0 4.0 0.00 0.00 0.00 58 1015.2
20260502204342 62 109 1.0 7.0 0.00 0.00 0.00 60 1015.3
20260502203342 62 111 0.0 1.0 0.00 0.00 0.00 62 1015.2
20260502202342 63 103 1.0 3.0 0.00 0.00 0.00 61 1015.2
20260502201342 64 103 1.0 3.0 0.00 0.00 0.00 58 1015.3
20260502200342 65 101 2.0 4.0 0.00 0.00 0.00 56 1015.3
20260502195342 65 96 2.0 4.0 0.00 0.00 0.00 54 1015.3
20260502194342 65 96 3.0 4.0 0.00 0.00 0.00 52 1015.3
20260502193342 64 93 3.0 6.0 0.00 0.00 0.00 53 1015.3
20260502192342 65 95 4.0 6.0 0.00 0.00 0.00 52 1015.2
20260502191342 65 94 3.0 6.0 0.00 0.00 0.00 50 1015.2
20260502190342 66 93 3.0 4.0 0.00 0.00 0.00 50 1015.2
20260502185342 66 92 3.0 6.0 0.00 0.00 0.00 50 1015.2
20260502184342 66 84 3.0 4.0 0.00 0.00 0.00 50 1015.1
20260502183342 67 82 3.0 4.0 0.00 0.00 0.00 50 1015.2
20260502182342 67 77 3.0 3.0 0.00 0.00 0.00 51 1015.1
20260502181342 68 70 3.0 4.0 0.00 0.00 0.00 51 1015.1
20260502180342 69 281 2.0 4.0 0.00 0.00 0.00 51 1015.1
20260502170342 76 271 0.0 1.0 0.00 0.00 0.00 38 1015.4
20260502164342 77 268 0.0 2.0 0.00 0.00 0.00 38 1015.6
20260502163342 77 264 3.0 5.0 0.00 0.00 0.00 33 1015.6
20260502162342 77 257 3.0 7.0 0.00 0.00 0.00 30 1015.8
20260502161342 77 263 3.0 6.0 0.00 0.00 0.00 32 1016.0
20260502160342 77 275 3.0 4.0 0.00 0.00 0.00 31 1016.0
20260502152342 78 266 4.0 10.0 0.00 0.00 0.00 30 1016.5
20260502151342 78 317 6.0 11.0 0.00 0.00 0.00 31 1016.5
20260502150342 78 246 4.0 8.0 0.00 0.00 0.00 31 1016.6
20260502130343 77 254 5.0 10.0 0.00 0.00 0.00 35 1017.8
20260502123343 77 259 3.0 9.0 0.00 0.00 0.00 36 1018.4
20260502122343 76 272 3.0 8.0 0.00 0.00 0.00 38 1018.4
20260502121343 75 57 2.0 6.0 0.00 0.00 0.00 40 1018.5
20260502120343 74 53 3.0 7.0 0.00 0.00 0.00 40 1018.7
20260502115343 74 36 4.0 8.0 0.00 0.00 0.00 40 1018.9
20260502114343 74 59 3.0 8.0 0.00 0.00 0.00 41 1019.0
20260502113343 74 15 3.0 5.0 0.00 0.00 0.00 40 1019.4
20260502112343 74 63 3.0 5.0 0.00 0.00 0.00 40 1019.5
20260502111343 74 230 3.0 8.0 0.00 0.00 0.00 37 1019.6
20260502110343 74 312 3.0 7.0 0.00 0.00 0.00 40 1019.7
20260502105343 73 323 3.0 8.0 0.00 0.00 0.00 39 1019.8
20260502104343 73 15 3.0 6.0 0.00 0.00 0.00 40 1019.9
20260502103343 73 339 3.0 7.0 0.00 0.00 0.00 39 1020.1
20260502102343 73 331 2.0 8.0 0.00 0.00 0.00 40 1020.3
20260502101343 72 221 3.0 5.0 0.00 0.00 0.00 41 1020.6
20260502100343 72 5 2.0 6.0 0.00 0.00 0.00 41 1020.6
20260502091343 69 201 3.0 9.0 0.00 0.00 0.00 45 1021.2
20260502090343 68 53 2.0 6.0 0.00 0.00 0.00 53 1021.2
20260502071344 62 53 1.0 6.0 0.00 0.00 0.00 58 1022.1
20260502070344 61 45 1.0 3.0 0.00 0.00 0.00 61 1022.2
20260502065344 61 0 2.0 6.0 0.00 0.00 0.00 60 1022.2
20260502064344 60 61 1.0 6.0 0.00 0.00 0.00 61 1022.2
20260502063344 59 84 1.0 3.0 0.00 0.00 0.00 64 1022.2
20260502062344 57 69 1.0 3.0 0.00 0.00 0.00 67 1022.2
20260502061344 56 69 1.0 3.0 0.00 0.00 0.00 69 1022.2
20260502060344 54 99 1.0 3.0 0.00 0.00 0.00 71 1022.4
20260502055344 54 83 1.0 3.0 0.00 0.00 0.00 72 1022.4
20260502054344 53 116 0.0 3.0 0.00 0.00 0.00 74 1022.5
20260502053344 52 36 0.0 1.0 0.00 0.00 0.00 76 1022.6
20260502052344 51 110 0.0 2.0 0.00 0.00 0.00 76 1022.7
20260502051344 50 110 1.0 3.0 0.00 0.00 0.00 77 1022.6
20260502050344 49 84 1.0 3.0 0.00 0.00 0.00 80 1022.6
20260502045344 48 240 0.0 0.0 0.00 0.00 0.00 79 1022.6
20260502044344 48 240 1.0 2.0 0.00 0.00 0.00 78 1022.6
20260502043344 49 200 1.0 3.0 0.00 0.00 0.00 78 1022.7
20260502042344 48 68 1.0 3.0 0.00 0.00 0.00 78 1022.5
20260502041344 49 84 1.0 2.0 0.00 0.00 0.00 77 1022.6
20260502040344 49 90 1.0 2.0 0.00 0.00 0.00 77 1022.7
20260502035344 49 86 1.0 2.0 0.00 0.00 0.00 76 1022.7
20260502034344 49 120 0.0 3.0 0.00 0.00 0.00 75 1022.8
20260502033344 50 145 1.0 3.0 0.00 0.00 0.00 74 1022.7
20260502032344 50 94 4.0 9.0 0.00 0.00 0.00 74 1022.8
20260502031344 51 75 3.0 7.0 0.00 0.00 0.00 73 1022.8
20260502030344 51 108 5.0 10.0 0.00 0.00 0.00 73 1022.8
20260502025344 51 91 5.0 10.0 0.00 0.00 0.00 73 1022.9
20260502024344 51 84 4.0 9.0 0.00 0.00 0.00 73 1022.9
20260502023344 50 53 4.0 10.0 0.00 0.00 0.00 74 1023.1
20260502022344 50 93 2.0 7.0 0.00 0.00 0.00 75 1023.0